Location: Guadanolo
(41.9167°N, 12.9333°E)
Time: 08:11:28
(UTC+00:00)

SL-16 R/B - Pass Details

Date: 16 September 2019
Orbit: 840 x 849 km, 71.0° (Epoch: 20 October)

Event Time Altitude Azimuth Distance (km) Brightness Sun altitude
Rises 18:58:04 0° 346° (NNW) 3,413 5.9 -19.1°
Reaches altitude 10° 19:01:13 10° 3° (N) 2,476 4.9 -19.7°
Maximum altitude 19:05:19 20° 50° (NE) 1,865 3.7 -20.4°
Enters shadow 19:05:51 20° 58° (ENE) 1,877 3.7 -20.5°
